Provincetown, MA

6:54 AM EDT on October 23, 2017 (GMT -0400)
Provincetown Municipal

Weather History for KPVC - February, 2013

Change the Weather History Date:

Tuesday, February 19, 2013

  Actual Average Record
Temperature  
Mean Temperature 38 °F -  
Max Temperature 48 °F 36 °F 59 °F (2017)
Min Temperature 28 °F 26 °F 3 °F (1958)
Degree Days  
Heating Degree Days 27    
Moisture  
Dew Point 27 °F    
Average Humidity 67    
Maximum Humidity 87    
Minimum Humidity 47    
Precipitation  
Precipitation 0.00 in - - ()
Sea Level Pressure  
Sea Level Pressure 30.00 in    
Wind  
Wind Speed 16 mph (SSW)    
Max Wind Speed 23 mph    
Max Gust Speed 31 mph    
Visibility 9 miles    
Events      
Averages and records for this station are not official NWS values.
T = Trace of Precipitation, MM = Missing Value Source: NWS Daily Summary

Daily Weather History Graph

Daily Weather History Graph

Search for Another Location

Airport or City:

Trip Planner

Search our weather history database for the weather conditions in past years. The results will help you decide how hot, cold, wet, or windy it might be!

Date:

Astronomy

Feb. 19, 2013 Rise Set
Actual Time 6:30 AM EST 5:19 PM EST
Civil Twilight 6:02 AM EST 5:47 PM EST
Nautical Twilight 5:29 AM EST 6:20 PM EST
Astronomical Twilight 4:57 AM EST 6:52 PM EST
Moon 11:44 AM EST (2/19) 2:03 AM EST (2/19)
Length of Visible Light 11h 44m
Length of Day
10h 48m
Waxing Gibbous, 67% of the Moon is Illuminated
Feb 19
Waxing Gibbous
Feb 25
Full
Mar 4
Last Quarter
Mar 11
New
Mar 19
First Quarter

Hourly Weather History & Observations

Time (EST) Temp. Windchill Dew Point Humidity Pressure Visibility Wind Dir Wind Speed Gust Speed Precip Events Conditions
12:15 AM 28.4 °F 14.4 °F 10.4 °F 47% 30.15 in 10.0 mi West 23.0 mph 29.9 mph N/A   Clear
12:35 AM 28.4 °F 14.4 °F 10.4 °F 47% 30.14 in 10.0 mi West 23.0 mph 28.8 mph N/A   Clear
12:55 AM 28.4 °F 15.1 °F 10.4 °F 47% 30.14 in 10.0 mi West 20.7 mph 27.6 mph N/A   Clear
1:15 AM 28.4 °F 14.7 °F 10.4 °F 47% 30.15 in 10.0 mi West 21.9 mph 27.6 mph N/A   Clear
1:35 AM 28.4 °F 14.7 °F 10.4 °F 47% 30.15 in 10.0 mi West 21.9 mph 27.6 mph N/A   Clear
1:55 AM 28.4 °F 14.7 °F 10.4 °F 47% 30.15 in 10.0 mi West 21.9 mph 29.9 mph N/A   Clear
2:15 AM 28.4 °F 14.7 °F 10.4 °F 47% 30.15 in 10.0 mi West 21.9 mph 26.5 mph N/A   Clear
2:35 AM 28.4 °F 15.1 °F 12.2 °F 51% 30.16 in 10.0 mi West 20.7 mph 25.3 mph N/A   Clear
2:55 AM 28.4 °F 17.0 °F 12.2 °F 51% 30.15 in 10.0 mi West 15.0 mph 27.6 mph N/A   Clear
3:15 AM 30.2 °F 19.3 °F 14.0 °F 51% 30.15 in 10.0 mi West 15.0 mph 24.2 mph N/A   Clear
3:35 AM 30.2 °F 18.5 °F 14.0 °F 51% 30.16 in 10.0 mi West 17.3 mph 24.2 mph N/A   Clear
3:55 AM 30.2 °F 19.3 °F 15.8 °F 55% 30.16 in 10.0 mi West 15.0 mph 19.6 mph N/A   Clear
4:15 AM 30.2 °F 19.8 °F 14.0 °F 51% 30.15 in 10.0 mi West 13.8 mph 21.9 mph N/A   Clear
4:35 AM 30.2 °F 19.8 °F 12.2 °F 47% 30.15 in 10.0 mi West 13.8 mph 19.6 mph N/A   Clear
4:55 AM 30.2 °F 20.2 °F 14.0 °F 51% 30.16 in 10.0 mi West 12.7 mph 19.6 mph N/A   Clear
5:15 AM 30.2 °F 23.4 °F 14.0 °F 51% 30.15 in 10.0 mi West 6.9 mph - N/A   Clear
5:35 AM 28.4 °F 23.3 °F 14.0 °F 55% 30.15 in 10.0 mi West 4.6 mph - N/A   Clear
5:55 AM 28.4 °F 21.2 °F 17.6 °F 64% 30.14 in 10.0 mi WSW 6.9 mph - N/A   Scattered Clouds
6:15 AM 30.2 °F 20.8 °F 15.8 °F 55% 30.14 in 10.0 mi West 11.5 mph - N/A   Overcast
6:55 AM 30.2 °F 21.3 °F 17.6 °F 60% 30.15 in 10.0 mi WSW 10.4 mph - N/A   Mostly Cloudy
7:15 AM 30.2 °F 20.2 °F 19.4 °F 64% 30.15 in 10.0 mi WSW 12.7 mph - N/A   Clear
7:35 AM 33.8 °F 25.8 °F 21.2 °F 60% 30.15 in 10.0 mi WSW 10.4 mph - N/A   Mostly Cloudy
7:55 AM 33.8 °F 27.0 °F 19.4 °F 56% 30.14 in 10.0 mi WSW 8.1 mph - N/A   Mostly Cloudy
8:15 AM 35.6 °F 27.1 °F 24.8 °F 65% 30.13 in 10.0 mi SW 12.7 mph - N/A   Partly Cloudy
8:35 AM 35.6 °F 27.5 °F 21.2 °F 56% 30.12 in 10.0 mi SW 11.5 mph - N/A   Clear
8:55 AM 35.6 °F 27.5 °F 21.2 °F 56% 30.13 in 10.0 mi SW 11.5 mph - N/A   Clear
9:15 AM 35.6 °F 29.2 °F 23.0 °F 60% 30.13 in 10.0 mi SW 8.1 mph - N/A   Clear
9:35 AM 37.4 °F 31.4 °F 23.0 °F 56% 30.12 in 10.0 mi SW 8.1 mph - N/A   Clear
9:55 AM 37.4 °F 30.3 °F 24.8 °F 60% 30.12 in 10.0 mi SSW 10.4 mph - N/A   Clear
10:15 AM 37.4 °F 29.3 °F 24.8 °F 60% 30.12 in 10.0 mi SSW 12.7 mph - N/A   Clear
10:35 AM 37.4 °F 30.3 °F 26.6 °F 65% 30.11 in 10.0 mi South 10.4 mph - N/A   Clear
10:55 AM 39.2 °F 32.0 °F 26.6 °F 61% 30.11 in 10.0 mi South 11.5 mph - N/A   Clear
11:15 AM 41.0 °F 34.3 °F 28.4 °F 61% 30.10 in 10.0 mi South 11.5 mph - N/A   Clear
11:35 AM 41.0 °F 33.5 °F 28.4 °F 61% 30.09 in 10.0 mi South 13.8 mph 19.6 mph N/A   Clear
11:55 AM 41.0 °F 33.9 °F 30.2 °F 65% 30.08 in 10.0 mi South 12.7 mph - N/A   Clear
12:15 PM 42.8 °F 35.4 °F 30.2 °F 61% 30.06 in 10.0 mi South 15.0 mph 21.9 mph N/A   Clear
12:35 PM 42.8 °F 36.2 °F 30.2 °F 61% 30.04 in 10.0 mi South 12.7 mph 20.7 mph N/A   Clear
1:15 PM 42.8 °F 35.4 °F 32.0 °F 66% 30.03 in 10.0 mi South 15.0 mph 20.7 mph N/A   Clear
1:35 PM 42.8 °F 36.6 °F 33.8 °F 70% 30.01 in 10.0 mi South 11.5 mph 20.7 mph N/A   Clear
1:55 PM 42.8 °F 35.4 °F 33.8 °F 70% 30.00 in 10.0 mi South 15.0 mph 21.9 mph N/A   Clear
2:15 PM 42.8 °F 35.8 °F 33.8 °F 70% 29.99 in 10.0 mi South 13.8 mph 23.0 mph N/A   Clear
2:35 PM 41.0 °F 33.9 °F 33.8 °F 76% 30.00 in 10.0 mi South 12.7 mph 18.4 mph N/A   Clear
2:55 PM 41.0 °F 34.3 °F 33.8 °F 76% 29.98 in 10.0 mi South 11.5 mph 17.3 mph N/A   Partly Cloudy
3:15 PM 41.0 °F 34.7 °F 33.8 °F 76% 29.97 in 10.0 mi South 10.4 mph - N/A   Clear
3:35 PM 39.2 °F 31.2 °F 33.8 °F 81% 29.95 in 10.0 mi SSE 13.8 mph 19.6 mph N/A   Clear
3:55 PM 41.0 °F 33.5 °F 33.8 °F 76% 29.93 in 10.0 mi SSE 13.8 mph 21.9 mph N/A   Clear
4:15 PM 41.0 °F 33.9 °F 35.6 °F 81% 29.93 in 10.0 mi SSE 12.7 mph 19.6 mph N/A   Partly Cloudy
4:35 PM 41.0 °F 33.9 °F 35.6 °F 81% 29.91 in 10.0 mi SSE 12.7 mph 23.0 mph N/A   Partly Cloudy
4:55 PM 41.0 °F 34.7 °F 37.4 °F 87% 29.90 in 10.0 mi SSE 10.4 mph 18.4 mph N/A   Scattered Clouds
5:15 PM 41.0 °F 33.9 °F 35.6 °F 81% 29.89 in 10.0 mi SSE 12.7 mph 16.1 mph N/A   Mostly Cloudy
5:35 PM 41.0 °F 33.5 °F 37.4 °F 87% 29.89 in 10.0 mi SSE 13.8 mph 21.9 mph N/A   Overcast
5:55 PM 41.0 °F 34.3 °F 37.4 °F 87% 29.88 in 10.0 mi SSE 11.5 mph 19.6 mph N/A   Overcast
6:15 PM 41.0 °F 34.3 °F 37.4 °F 87% 29.86 in 10.0 mi SSE 11.5 mph 19.6 mph N/A   Mostly Cloudy
7:35 PM 42.8 °F 35.8 °F 39.2 °F 87% 29.78 in 10.0 mi SSE 13.8 mph 26.5 mph N/A   Overcast
8:15 PM 42.8 °F 36.6 °F 39.2 °F 87% 29.75 in 9.0 mi SSE 11.5 mph 18.4 mph N/A   Overcast
8:35 PM 42.8 °F 35.4 °F 39.2 °F 87% 29.72 in 7.0 mi SSE 15.0 mph 21.9 mph N/A   Overcast
8:55 PM 46.4 °F 39.2 °F 42.8 °F 87% 29.70 in 7.0 mi SSE 18.4 mph 29.9 mph N/A   Overcast
9:15 PM 46.4 °F 38.5 °F 41.0 °F 81% 29.71 in 4.0 mi SSW 21.9 mph 29.9 mph N/A   Mostly Cloudy
9:35 PM 46.4 °F 39.5 °F 42.8 °F 87% 29.68 in 5.0 mi SSW 17.3 mph 23.0 mph N/A   Overcast
9:55 PM 48.2 °F - 42.8 °F 82% 29.65 in 8.0 mi South 18.4 mph 31.1 mph N/A   Overcast
10:15 PM 46.4 °F 39.5 °F 42.8 °F 87% 29.64 in 5.0 mi South 17.3 mph 25.3 mph N/A   Overcast
10:35 PM 46.4 °F 38.7 °F 42.8 °F 87% 29.63 in 5.0 mi South 20.7 mph 26.5 mph N/A   Overcast
10:55 PM 48.2 °F - 42.8 °F 82% 29.62 in 5.0 mi South 16.1 mph 23.0 mph N/A   Mostly Cloudy
11:15 PM 48.2 °F - 42.8 °F 82% 29.63 in 5.0 mi SSW 15.0 mph 23.0 mph N/A   Overcast
11:35 PM 48.2 °F - 42.8 °F 82% 29.61 in 5.0 mi SSW 12.7 mph 18.4 mph N/A   Overcast
11:55 PM 46.4 °F 40.7 °F 41.0 °F 81% 29.61 in 5.0 mi SSW 12.7 mph - N/A   Overcast